User: anonymous
Location: Caltech
(34.1382°N, 118.1253°W)
Time: 04:58:34
(UTC-07:00)
Language:

ASTRO E2 - Orbit

View from above orbital plane
View from above orbital plane
View from above satellite
View from above satellite

Ground track
Ground track

The orbit data is extracted from the following two-line orbital elements,

1 28773U 05025A   14293.49881635  .00007530  00000-0  44926-3 0  3933
2 28773 031.3825 092.1409 0005471 355.6551 057.9852 15.09837362510144
Epoch (UTC): 20 October 2014 11:58:17
Eccentricity: 0.0005471
inclination: 31.3825°
perigee height: 533 km
apogee height: 540 km
right ascension of ascending node: 92.1409°
argument of perigee: 355.6551°
revolutions per day: 15.09837362
mean anomaly at epoch: 57.9852°
orbit number at epoch: 51014

The dashed part of the orbit path shows where the satellite is in the earth's shadow,  

DLR